Powrót do katalogu

NOAA 16 DEB

AktywnySSO
NORAD 41416·DEBRIS·🇺🇸 United States

Wystrzelony Sep 21, 2000 z Vandenberg Space Force Base

Loading…

Następne Przeloty (najbliższe 24 godziny)

TLE

ŚwieżeSource: Space-Track

Epoka: Sep 14, 2026, 13:51 UTC

1 41416U 00055KV  26257.57723641  .00004576  00000-0  14010-2 0  9993
2 41416  98.7809  15.8272 0027891 189.6310 170.4348 14.42032031547710

Śledź NOAA 16 DEB w czasie rzeczywistym z AllMySat

Download on the App Store